GFSSE_con_3kmhel_114.txt.gz
Helicity
75 105 83 70 55 86 102 106 115 124 129 118 112 110 94 74 57 47 34 29 37 62 65 77 81 79 69 60 43 38 40 37 42 41 35 25 16 22 23 13 2 0 23
76 77 76 52 47 81 90 99 109 115 118 108 113 103 90 75 61 48 41 40 38 41 76 81 84 83 71 61 50 32 29 28 33 33 26 20 16 29 32 27 24 22 41
99 98 93 67 42 57 73 95 105 104 98 100 89 78 66 66 63 40 47 41 38 70 82 85 79 63 51 45 32 17 13 14 23 31 31 6 -3 30 35 36 33 27 20
110 102 77 59 60 56 73 83 82 88 85 76 63 63 59 52 43 51 61 54 74 96 89 80 75 47 36 20 7 6 7 9 14 23 22 20 6 22 25 26 20 20 22
104 94 85 86 76 71 88 72 72 68 67 56 40 49 51 41 36 55 60 77 92 84 95 66 64 45 27 18 8 12 12 11 13 16 15 17 24 15 23 22 17 18 23
100 103 80 80 88 65 75 72 58 54 55 49 29 42 49 40 49 81 94 125 105 86 87 62 45 35 29 28 30 31 20 16 16 13 13 12 6 20 25 24 24 23 25
104 84 69 71 60 70 56 55 61 54 51 57 51 39 42 28 64 102 128 145 103 79 64 56 45 27 37 33 32 28 25 20 9 8 10 3 -4 22 22 24 28 28 26
95 99 65 56 44 53 56 54 50 58 53 58 66 51 43 43 61 107 124 119 92 67 61 51 47 44 36 40 29 29 23 20 12 9 6 3 6 23 25 24 23 22 23
72 90 88 71 55 51 64 59 58 48 52 68 60 63 49 50 70 106 110 92 81 71 65 57 56 55 44 42 39 28 21 23 17 7 8 4 2 21 24 21 21 22 26
101 96 128 115 91 87 89 71 72 71 69 85 65 66 83 85 86 111 115 86 83 81 78 69 57 55 53 45 40 28 27 31 20 15 9 2 -1 18 22 19 15 18 20
133 98 93 123 139 136 110 103 96 74 89 87 77 79 99 129 117 108 120 89 92 99 87 82 69 55 50 48 43 35 34 24 22 18 15 -4 1 13 17 16 15 16 17
154 129 104 133 126 158 161 132 112 114 132 139 125 110 136 144 150 152 119 93 91 106 99 89 85 70 65 58 56 47 33 22 15 15 17 3 0 10 15 17 13 10 13
196 143 89 101 127 151 155 146 117 119 141 167 156 141 123 154 177 183 179 130 110 116 134 120 101 89 69 60 53 41 32 22 18 15 13 7 1 0 9 13 13 10 6
150 153 130 110 110 130 152 141 118 106 130 148 147 142 146 153 163 183 179 168 148 140 131 135 118 86 68 61 56 50 34 26 21 19 15 3 4 -8 -10 0 6 4 7
181 137 118 129 102 113 125 124 123 122 120 97 88 109 142 147 140 189 199 170 165 163 144 132 125 103 71 57 51 48 44 29 22 28 31 12 3 -10 -10 -3 2 6 3
181 156 151 132 109 104 104 117 119 130 107 86 67 96 108 162 169 187 200 177 180 165 169 138 126 104 70 68 48 41 33 32 27 28 34 30 11 -8 -12 -14 1 14 7
180 187 169 159 136 131 104 90 109 103 75 70 68 67 90 154 196 255 236 211 216 179 159 157 152 122 94 56 49 44 42 37 34 32 36 38 32 11 13 18 9 20 27
207 196 185 179 167 145 130 96 83 88 87 82 79 100 110 136 188 236 312 272 256 204 167 172 172 136 103 52 56 46 43 47 41 37 44 40 49 50 51 48 42 42 53
208 217 228 206 189 167 156 142 84 51 73 100 107 126 125 168 208 220 303 369 301 233 209 184 179 147 98 76 58 58 49 47 48 61 42 48 51 60 70 67 71 82 80
152 194 229 231 215 188 191 167 147 120 79 93 112 147 162 195 228 268 274 301 284 259 249 149 165 128 97 96 75 65 60 58 52 55 61 66 67 75 91 96 139 124 97
119 148 208 243 218 222 210 183 174 160 125 116 138 141 167 204 256 302 357 435 321 285 212 158 115 104 86 119 97 78 62 61 53 64 80 85 99 121 140 127 135 131 125
79 141 167 213 202 182 208 220 211 162 134 124 137 156 203 210 238 345 320 266 249 268 277 102 87 87 75 132 119 109 82 79 89 95 101 111 115 145 148 129 130 134 144
79 101 137 148 165 148 160 186 172 163 169 150 155 164 160 182 226 259 256 265 189 260 277 197 113 107 85 121 130 124 101 101 98 127 142 139 159 158 160 148 148 150 175
61 40 55 62 108 100 175 144 116 160 163 141 136 163 157 137 194 200 244 236 147 98 100 203 289 129 127 113 139 147 172 148 108 118 127 129 138 145 170 203 190 183 212
19 -35 -2 40 100 101 100 124 143 168 142 135 132 154 127 144 179 166 212 157 202 120 91 -56 101 102 133 135 177 183 212 206 189 176 170 157 147 131 173 228 224 269 292
33 20 35 86 59 122 153 160 144 102 126 164 134 136 151 157 152 194 181 152 105 120 145 28 106 112 134 169 179 209 201 203 178 242 228 200 179 124 226 344 393 336 382

GFSSE_con_3kmhel_117.txt.gz
Helicity
48 68 87 89 75 78 68 70 84 105 92 89 91 88 79 60 47 41 34 45 43 57 73 92 111 84 59 50 52 45 41 35 35 39 26 20 16 26 18 5 5 9 28
56 67 71 65 60 65 79 71 76 83 78 74 80 81 72 62 43 30 28 30 49 53 58 77 90 90 59 50 47 43 38 32 33 32 22 24 12 30 27 26 15 25 21
24 67 72 72 61 66 56 77 82 78 75 67 72 69 68 53 51 27 24 23 20 52 50 70 73 72 54 35 27 23 22 21 24 29 16 14 24 29 27 20 26 23 22
12 44 55 82 88 62 64 71 70 70 75 64 59 49 45 50 40 40 21 14 53 69 64 62 68 53 39 23 18 14 12 17 19 18 11 11 7 17 21 21 22 26 26
23 42 33 59 79 74 79 65 64 61 57 53 34 44 27 29 29 48 30 52 84 74 88 62 52 41 16 5 10 18 15 15 15 12 11 9 7 13 19 19 15 20 23
32 58 41 52 55 83 77 74 56 49 54 38 22 39 36 6 9 43 56 76 109 117 81 60 49 30 21 16 20 19 18 17 16 9 8 13 11 19 24 25 23 21 24
42 59 50 54 33 38 59 59 58 44 40 37 33 39 35 14 23 57 86 98 127 98 73 54 42 27 24 25 39 27 25 23 12 15 14 10 12 20 23 22 24 26 25
91 44 40 41 46 36 19 21 38 47 31 38 32 31 34 34 40 86 112 106 105 86 64 48 43 33 19 19 29 30 30 25 17 21 20 16 16 24 27 24 23 23 24
126 64 51 43 44 51 47 25 16 29 32 36 38 36 38 56 72 81 107 99 85 64 52 45 38 43 32 16 26 30 30 27 23 21 19 18 9 22 23 22 24 26 23
146 144 116 56 59 51 46 38 30 31 34 32 50 45 57 62 77 92 116 89 71 63 53 41 37 41 43 38 29 32 31 31 25 21 16 17 4 20 19 20 22 22 23
136 126 119 122 94 74 49 42 45 44 40 51 65 73 66 73 71 71 94 96 79 67 63 54 44 44 54 53 46 34 30 21 20 20 17 10 2 13 18 18 19 18 19
263 169 91 100 85 93 86 72 67 57 61 70 75 79 100 87 84 82 92 101 85 79 78 64 59 57 56 48 44 47 30 27 20 17 16 7 2 3 13 14 14 12 12
240 217 139 111 112 104 84 82 77 71 72 80 76 87 103 112 108 110 110 108 81 82 85 86 80 54 42 52 47 36 36 35 30 24 16 7 -1 -4 5 10 10 6 3
216 236 167 110 110 103 105 86 75 82 75 89 87 85 108 119 128 133 122 125 106 101 90 94 94 75 57 44 40 37 35 32 33 30 19 7 -3 -7 -11 -9 10 10 6
188 201 193 123 98 106 105 107 103 96 86 69 80 81 109 115 123 141 132 152 113 97 98 105 99 90 69 59 46 34 33 33 29 33 29 19 1 -10 -11 -14 -3 8 11
167 185 193 161 121 114 123 125 126 122 111 102 75 56 76 103 102 129 138 178 126 111 110 105 101 102 90 72 57 41 32 32 34 32 31 27 11 1 -8 -13 -4 -5 5
163 187 204 189 125 143 105 114 116 119 127 109 78 55 40 59 94 89 115 186 212 168 166 142 104 96 108 88 70 58 45 30 29 30 36 34 30 14 4 0 8 12 15
140 178 207 219 184 156 140 125 120 116 122 103 64 49 26 41 86 117 138 161 237 238 222 202 186 115 96 92 74 68 58 41 31 30 42 42 40 30 23 14 32 38 41
93 144 221 231 220 185 159 143 129 114 100 80 61 51 52 41 52 103 142 160 188 262 244 260 251 183 110 76 77 62 69 45 41 43 34 41 40 45 44 33 39 50 60
94 96 168 241 237 225 205 178 155 140 122 81 59 27 16 46 59 121 152 201 216 263 304 302 262 273 134 76 72 61 73 52 47 48 45 54 59 58 50 46 67 86 76
75 76 90 183 234 245 247 237 211 180 146 129 81 74 63 64 67 103 167 247 265 299 318 289 334 315 206 66 84 60 52 45 44 64 70 71 66 70 71 83 104 114 102
64 51 60 98 170 237 246 219 225 179 157 133 121 94 77 81 91 132 164 250 256 289 345 301 348 420 275 160 94 49 37 35 62 78 97 93 79 95 104 118 106 113 104
69 49 37 42 86 174 199 200 199 192 202 187 147 122 106 83 131 154 163 249 282 252 272 301 289 268 271 344 136 102 90 54 48 64 86 110 116 119 122 120 116 127 128
55 50 52 37 43 99 151 188 175 200 195 169 132 129 105 83 144 141 144 160 189 233 240 259 301 336 364 389 156 99 120 93 71 59 64 75 99 103 110 143 146 143 151
19 41 62 39 2 47 102 116 138 145 153 145 129 114 93 103 125 125 132 157 164 185 204 185 187 229 246 300 342 320 117 130 149 145 81 83 129 132 132 132 135 171 188
44 27 39 -13 -16 -10 42 79 112 86 105 138 138 117 102 95 122 122 108 161 180 178 198 185 173 194 165 203 226 108 115 162 161 171 154 130 106 123 174 147 147 223 311

GFSSE_con_3kmhel_120.txt.gz
Helicity
11 55 73 58 46 43 48 26 40 63 48 52 61 64 54 35 35 32 27 32 31 36 56 64 68 67 60 47 43 43 40 43 42 32 27 15 15 21 9 0 -6 18 18
31 50 64 59 39 45 43 44 52 61 51 50 60 67 55 41 28 22 27 31 33 33 56 76 76 68 55 44 38 38 39 34 36 29 18 23 16 23 26 31 27 9 12
11 20 49 58 45 47 53 52 40 43 43 48 36 69 44 40 30 23 19 26 28 24 47 63 65 65 52 41 25 29 27 27 27 9 -45 7 18 21 25 21 15 14 16
17 8 20 46 47 49 57 54 50 47 41 39 49 53 30 28 31 15 6 5 19 38 29 53 47 35 32 19 19 9 16 19 13 -17 -3 7 12 18 18 24 25 24 23
-12 -4 16 36 36 50 66 62 51 44 44 37 40 30 18 17 15 12 -1 -1 43 56 59 49 31 23 10 7 9 11 11 12 2 -18 9 9 10 19 22 21 24 26 29
13 -2 51 27 26 48 68 64 58 50 41 22 11 27 19 2 1 17 19 39 78 72 85 43 28 4 -10 -6 9 11 10 8 -16 4 8 10 19 24 25 28 27 29 29
50 25 30 46 35 28 43 45 40 36 43 33 3 15 18 2 3 26 37 79 90 79 63 55 27 4 1 -1 9 13 13 0 -4 10 12 13 29 25 26 27 29 28 26
90 63 44 47 49 44 28 27 30 23 19 32 16 15 11 10 13 28 62 95 89 81 61 41 21 5 3 14 20 18 19 0 2 19 25 23 33 26 29 29 26 26 26
122 112 89 55 38 50 49 38 25 16 15 12 11 17 13 18 32 42 84 99 79 68 56 34 21 8 1 9 21 25 24 4 11 29 26 25 24 26 29 26 24 23 25
141 133 133 72 51 34 36 36 29 25 25 33 18 17 29 40 40 41 89 84 74 60 54 41 24 15 14 10 26 29 26 11 18 25 23 42 27 24 26 23 23 22 24
148 141 117 98 107 65 38 38 35 23 30 41 39 36 39 32 48 58 51 103 74 62 57 50 39 35 34 29 22 24 18 12 21 23 27 57 20 16 19 17 17 17 17
183 161 143 113 100 91 76 62 44 41 43 36 36 32 33 34 52 57 66 95 78 69 67 60 56 58 39 22 28 25 3 17 23 25 30 44 13 6 12 11 8 7 12
179 168 150 127 106 92 85 98 88 103 81 59 42 43 38 50 52 78 93 100 82 71 54 69 72 49 29 31 30 21 20 20 25 29 38 38 13 3 1 5 3 3 8
127 158 152 159 125 106 105 84 93 100 84 71 58 47 63 67 65 63 85 92 88 97 56 62 72 58 47 36 31 27 25 27 29 35 38 43 17 5 -3 -12 -4 6 7
100 123 157 150 151 143 134 137 126 95 92 68 50 44 42 63 66 64 71 99 97 94 94 79 78 81 65 45 41 38 28 28 26 34 36 55 30 14 1 -14 -8 9 11
80 109 155 153 154 144 140 127 121 102 103 108 84 59 49 53 65 67 53 72 84 100 100 97 92 95 79 63 46 47 39 37 34 28 32 38 43 31 13 -7 -14 -4 4
112 105 138 178 151 149 133 130 135 128 124 120 97 62 58 59 58 60 62 53 56 66 107 107 97 108 113 107 72 53 46 41 39 35 35 36 43 41 25 5 -2 -1 2
84 96 115 150 182 173 151 145 166 165 147 136 129 104 72 63 36 34 65 54 61 66 82 126 137 121 129 132 104 82 66 53 42 35 45 44 51 54 50 31 24 22 26
85 89 98 132 167 190 187 175 168 158 160 141 124 103 97 64 37 40 50 69 72 109 108 128 140 168 162 144 165 108 91 51 47 48 40 46 50 59 56 50 44 38 46
86 82 94 118 156 193 215 201 227 199 162 135 115 94 64 62 47 51 58 53 66 133 150 192 144 163 168 158 197 222 177 92 54 54 48 55 56 59 58 51 51 47 58
110 92 102 113 140 194 233 255 265 247 187 171 126 86 88 66 37 37 47 56 90 156 190 190 230 174 245 208 224 235 172 177 70 59 50 56 59 62 64 72 67 65 85
98 94 101 98 121 148 201 218 216 203 192 163 118 93 85 78 66 84 86 96 100 162 175 197 231 279 290 287 312 301 298 276 91 48 48 62 60 84 84 82 76 100 109
78 72 70 66 74 115 141 178 200 208 212 192 163 137 111 97 95 85 81 121 141 201 247 241 235 246 242 309 347 323 379 310 314 82 62 59 60 90 107 82 93 92 99
65 67 69 58 80 90 115 152 163 218 207 180 163 156 133 91 87 86 88 126 177 203 190 234 220 219 220 280 315 236 273 414 387 330 194 151 53 74 86 108 83 101 91
54 63 55 55 77 84 101 105 131 151 180 159 155 137 121 124 104 87 95 137 144 154 136 151 211 211 265 260 278 323 303 308 305 248 295 84 61 24 43 92 68 125 101
56 55 40 31 59 62 69 76 88 96 125 121 117 130 127 130 111 87 74 85 74 135 121 165 196 207 204 223 216 194 296 327 291 294 272 99 61 35 48 9 55 77 178

GFSSE_con_3kmhel_123.txt.gz
Helicity
1 49 54 32 20 20 12 17 19 25 30 43 49 45 37 23 16 16 10 12 18 12 39 32 28 39 36 36 38 40 42 50 39 34 20 10 15 21 36 7 15 7 8
43 31 59 43 25 24 27 18 27 26 24 34 44 55 41 23 11 10 11 13 15 28 40 31 39 39 41 41 33 27 35 30 20 7 13 31 24 36 41 44 30 7 14
92 36 36 32 38 33 41 43 33 27 18 19 22 30 51 25 9 2 5 6 11 16 33 43 44 27 26 24 24 18 18 15 -8 -27 -31 14 23 31 29 25 21 18 16
52 41 22 29 38 34 42 47 39 29 24 28 22 23 41 18 14 4 -6 -6 2 12 31 30 26 37 12 8 6 11 9 5 -13 -8 -17 -4 21 24 25 27 24 23 25
49 34 33 51 29 26 34 40 38 23 22 25 12 25 31 6 4 2 -9 -17 -2 17 44 25 38 13 4 -3 0 2 7 -4 -8 20 22 31 24 24 25 23 24 28 35
21 19 64 50 26 19 30 38 43 37 34 30 20 16 17 6 -2 4 -3 -14 22 42 53 54 33 6 -5 -1 1 0 0 -9 -6 11 21 20 56 29 29 31 28 26 27
72 33 29 50 31 23 28 36 42 34 30 26 17 12 -5 -9 10 3 16 40 56 47 57 36 20 8 -6 -8 6 7 5 -4 29 14 17 25 40 30 29 25 25 25 23
153 81 58 62 55 41 33 30 30 43 35 19 13 15 0 -4 9 11 32 58 65 46 57 32 19 15 16 9 12 15 6 -11 -5 14 26 45 41 33 32 29 24 23 23
125 161 105 62 65 65 60 47 32 15 19 21 16 17 10 13 17 6 39 58 65 52 50 36 27 21 16 18 18 14 4 -15 0 27 15 29 34 32 31 29 24 21 21
119 125 151 146 72 68 53 56 50 35 24 22 22 25 20 19 24 24 47 68 67 58 53 41 31 28 25 21 23 17 7 -13 -15 21 16 62 57 33 29 24 20 19 19
122 140 119 132 122 111 63 63 60 47 54 52 43 36 36 23 32 36 37 93 68 60 56 57 42 39 41 37 32 20 7 -3 9 15 22 75 50 25 26 20 15 14 17
119 111 141 112 90 102 104 75 52 53 48 45 46 39 42 19 44 47 62 97 81 79 81 66 48 56 43 23 29 35 11 -5 18 25 49 63 38 20 18 17 12 7 8
94 95 105 126 124 109 115 102 96 104 104 72 48 52 41 41 120 69 99 94 81 84 68 73 66 51 34 30 40 28 20 21 30 32 65 65 35 15 8 10 7 5 1
60 87 95 98 110 103 118 104 93 114 93 99 88 54 82 91 105 103 90 90 79 103 68 68 65 55 42 39 49 39 34 38 37 45 53 67 51 24 8 -2 -2 5 7
54 54 87 106 107 127 112 122 114 116 104 108 101 80 97 105 124 96 102 94 84 80 82 83 57 65 68 65 69 52 50 40 34 49 48 69 52 41 18 6 3 5 11
76 75 96 119 118 125 135 124 130 131 126 123 104 90 99 92 99 89 88 89 77 79 68 65 76 81 93 91 79 81 65 62 56 57 61 67 61 56 38 14 5 0 9
85 83 100 139 153 143 143 140 139 148 143 130 115 99 93 88 106 96 89 92 76 77 69 90 90 79 88 86 84 106 113 74 70 58 58 60 72 60 59 32 14 6 5
73 73 83 113 154 167 162 167 170 155 143 133 120 132 96 87 84 79 101 68 77 88 94 79 76 85 130 112 140 126 134 136 97 74 82 72 64 56 74 52 43 24 14
70 75 95 96 110 134 171 175 168 192 180 138 142 151 127 119 99 95 83 70 65 76 59 90 102 97 105 117 126 108 122 135 137 113 96 95 79 76 87 63 61 54 42
100 85 99 109 100 119 157 188 182 210 226 228 185 138 125 149 119 113 93 58 62 72 86 86 100 119 122 128 118 146 148 141 168 171 130 122 99 83 89 73 84 80 48
89 95 102 107 98 130 182 222 229 229 233 223 222 155 120 111 111 103 84 70 75 90 80 76 104 127 161 141 185 190 175 158 163 192 119 123 109 104 88 94 79 80 78
56 72 85 92 96 112 168 205 225 152 197 185 195 170 146 112 114 96 77 79 73 96 102 115 138 155 161 165 258 218 297 191 135 186 130 96 190 80 91 98 83 87 98
88 59 70 64 75 94 114 167 207 225 176 190 200 183 130 99 121 122 109 106 97 113 125 134 169 203 206 253 241 278 255 255 204 219 184 208 259 209 165 174 143 105 50
174 125 86 75 76 80 96 134 145 192 190 179 187 188 148 102 102 104 117 113 105 120 132 162 176 196 202 180 259 248 216 307 241 252 216 318 333 244 162 220 144 89 85
102 105 97 75 67 76 96 113 141 149 182 175 148 153 165 132 108 117 115 106 125 143 158 165 186 187 182 181 232 239 185 197 244 305 322 273 232 199 138 133 145 84 63
37 69 66 72 61 48 80 94 124 138 135 150 155 141 146 149 135 131 130 117 109 120 134 149 127 140 139 153 173 254 274 249 263 331 281 193 168 134 153 140 33 92 106

GFSSE_con_3kmhel_126.txt.gz
Helicity
-0 27 45 29 26 17 8 9 20 16 21 31 32 38 24 15 14 8 11 10 -5 -18 -3 -8 18 27 26 31 20 31 36 35 31 14 24 25 37 40 52 48 19 -4 15
7 31 52 32 23 17 10 10 18 20 16 16 21 44 27 14 11 3 3 11 21 11 -0 23 32 39 34 26 21 25 19 14 15 10 28 40 49 47 45 34 19 11 20
32 38 47 29 28 28 28 20 24 19 14 12 16 16 41 9 5 -0 2 7 14 31 38 40 36 26 30 21 12 13 8 2 2 -18 -10 -21 21 35 32 26 21 23 26
59 42 48 31 26 35 37 35 33 25 15 16 14 14 38 10 2 -0 1 3 3 17 33 37 35 37 24 15 11 6 1 7 17 4 -17 -12 22 27 28 25 23 23 27
65 34 55 56 35 31 27 30 34 31 28 18 10 6 32 8 -1 -3 -9 -4 -4 28 32 52 44 18 10 10 12 9 3 23 70 82 38 37 20 23 32 28 26 27 27
131 67 65 59 43 36 31 32 25 27 26 25 15 2 27 11 -6 -7 -12 -1 19 38 39 55 31 15 9 6 10 12 2 -0 51 29 23 49 30 28 31 31 25 23 25
121 61 40 46 40 37 34 36 39 33 28 30 23 13 10 -0 1 -6 10 8 33 43 50 33 25 16 4 4 14 10 1 -7 23 13 24 30 26 30 29 28 26 25 26
107 143 51 39 41 43 39 40 38 39 45 48 33 24 10 -0 13 12 15 28 50 50 47 25 17 20 18 9 15 16 3 -16 6 9 56 40 34 29 29 27 25 24 25
102 111 132 46 46 48 47 44 45 47 51 55 39 29 18 18 26 23 26 42 53 54 57 39 21 20 21 28 26 17 5 -10 1 10 37 52 39 34 29 25 24 21 20
148 136 139 154 83 79 76 54 53 51 46 38 25 21 22 21 28 28 30 54 58 58 60 58 44 31 26 24 28 20 9 -10 10 14 55 43 36 38 32 27 23 21 17
92 113 169 150 144 101 91 102 87 61 53 49 53 43 36 39 42 43 48 63 70 63 64 64 57 43 39 33 32 25 14 -1 -9 8 66 75 52 34 28 25 19 16 15
76 85 98 145 156 130 122 108 98 78 97 88 85 81 81 51 26 77 74 81 79 74 73 74 72 62 48 37 41 35 25 4 29 47 73 75 57 39 27 21 16 12 10
35 53 73 91 108 110 104 119 85 94 115 100 83 88 89 48 49 122 132 108 114 92 97 100 88 83 62 34 76 63 36 24 48 54 82 74 61 46 26 17 17 13 8
33 37 68 78 86 109 116 119 115 106 123 119 91 99 99 96 121 199 203 162 124 126 96 99 97 79 59 49 66 66 60 52 59 59 86 83 69 52 34 21 13 16 15
49 42 49 78 91 93 116 125 132 123 134 111 91 104 79 112 176 210 159 156 117 124 102 115 79 77 64 55 65 98 87 85 71 71 103 90 68 54 44 26 19 15 14
64 62 65 69 94 116 123 118 128 157 151 113 141 120 96 130 186 188 174 157 142 127 91 98 102 61 85 87 112 130 85 96 94 96 113 114 93 69 55 40 24 20 15
94 83 79 80 94 124 145 144 133 151 188 176 151 123 103 139 164 141 138 135 136 135 98 102 61 93 85 123 137 129 108 101 120 112 114 138 126 87 71 46 38 23 15
88 98 97 93 108 106 144 164 165 152 169 189 190 143 136 148 153 144 146 128 122 140 128 102 102 85 109 113 134 125 114 108 117 108 114 132 146 132 92 65 50 44 37
118 110 95 109 129 122 127 155 165 172 180 198 228 189 135 136 147 166 158 128 122 127 144 145 116 110 108 87 119 139 148 120 100 128 127 124 115 137 149 86 68 64 66
95 107 107 117 126 134 142 147 169 200 195 167 209 200 159 164 166 166 142 142 158 133 104 119 116 107 121 115 126 115 150 144 137 127 136 134 140 127 138 134 135 102 81
83 89 113 110 129 162 172 176 174 210 197 195 163 222 205 165 181 219 184 156 153 131 122 117 121 97 102 111 135 143 153 170 158 157 150 162 144 136 133 142 149 113 133
93 128 110 133 120 138 191 179 163 176 203 161 179 159 183 190 168 182 178 165 131 132 122 128 129 123 120 138 166 169 186 209 214 226 222 195 160 155 115 153 194 234 214
91 89 128 139 157 146 146 166 149 163 194 167 161 175 155 163 217 178 158 152 132 133 127 122 114 130 144 162 187 230 238 237 227 189 174 162 169 163 191 213 229 218 177
83 110 91 140 171 165 130 157 135 161 181 200 145 145 182 156 162 161 154 155 141 141 136 127 135 179 192 183 206 217 283 304 223 184 210 228 233 188 165 166 185 163 149
111 168 162 99 119 133 124 145 139 148 160 161 169 147 142 150 153 157 145 142 145 150 141 130 154 167 184 190 230 251 196 177 216 296 246 265 281 228 226 302 282 200 142
116 126 139 67 74 80 85 98 135 122 133 145 159 140 166 169 169 127 128 132 138 136 146 160 153 147 136 144 155 182 196 196 188 203 226 296 239 242 213 191 165 183 126

GFSSE_con_3kmhel_129.txt.gz
Helicity
-9 21 32 38 37 22 10 11 17 25 20 21 20 24 24 26 19 17 21 12 -1 4 10 21 22 26 34 20 33 31 32 33 14 23 35 46 42 38 24 14 9 -2 23
0 17 48 45 32 19 12 12 17 19 16 14 6 34 18 15 14 10 19 20 -8 2 26 46 36 40 29 41 36 30 28 17 5 21 36 39 35 35 34 30 24 14 25
22 26 52 41 25 14 15 19 24 18 13 7 11 26 26 14 6 5 12 25 42 38 39 50 41 32 28 26 32 24 17 10 10 21 10 0 1 26 29 25 25 26 26
26 37 50 46 30 22 23 24 25 26 20 12 12 15 24 13 6 2 6 14 25 37 45 48 37 34 22 19 16 18 24 32 38 18 -22 -2 6 25 23 22 23 25 26
81 42 49 55 39 28 29 33 35 33 27 22 15 8 24 14 7 3 2 11 18 33 46 38 28 24 20 16 10 10 20 46 62 13 39 7 8 21 26 28 25 27 26
114 34 38 49 39 39 31 27 31 31 27 24 17 8 28 9 0 2 2 15 27 35 51 40 22 15 15 16 15 11 18 42 56 8 14 14 11 25 25 27 24 22 24
113 90 46 40 33 37 39 38 39 35 32 32 29 20 25 19 2 3 10 17 33 53 54 36 21 2 7 14 16 11 8 32 49 18 37 19 20 26 25 27 25 23 23
106 122 64 49 42 40 42 38 35 37 35 38 45 36 34 24 19 10 22 28 40 48 43 39 38 12 3 9 19 17 8 22 45 28 37 25 33 30 27 26 22 20 22
127 120 113 64 48 43 41 43 47 46 46 45 50 49 51 37 34 29 21 20 48 57 55 37 37 28 19 18 22 18 13 14 24 36 36 32 33 34 31 25 21 18 22
136 119 134 130 73 58 66 54 46 45 50 51 48 43 40 44 45 35 33 42 59 64 65 54 38 43 28 27 24 20 11 11 21 35 43 32 38 41 35 26 23 21 22
86 118 140 142 132 102 77 85 79 70 63 58 55 40 38 42 46 50 46 49 73 73 72 59 49 47 46 34 26 18 15 16 18 27 40 56 56 53 43 32 24 21 20
48 64 92 120 132 146 113 113 93 94 105 95 82 79 81 67 59 53 64 73 73 77 79 73 59 56 60 54 43 27 33 14 19 11 41 75 62 57 49 39 32 27 20
25 41 63 83 98 110 120 119 123 108 101 94 92 97 97 85 80 83 102 96 108 96 91 82 81 78 65 60 53 52 36 25 38 44 58 79 66 57 51 40 33 28 22
35 37 36 52 77 91 103 112 108 102 92 106 92 91 110 100 96 109 152 137 129 130 113 104 94 80 69 54 56 58 48 41 57 72 82 91 79 63 55 44 37 32 21
58 61 54 59 55 77 91 103 118 118 126 106 100 121 124 135 128 156 173 194 179 172 145 117 97 84 69 48 58 65 59 47 46 82 100 77 81 75 61 51 44 42 35
82 75 62 58 72 84 92 102 107 131 129 131 120 104 107 125 119 186 210 201 161 164 141 134 114 99 74 62 30 70 88 95 84 73 100 108 88 85 67 48 41 39 35
98 93 92 89 64 83 96 104 118 115 126 149 155 122 108 136 121 155 205 216 177 158 128 127 103 116 103 83 61 64 87 86 80 85 95 115 107 76 78 49 42 36 38
77 75 85 84 86 79 105 116 123 118 131 134 170 152 135 130 147 195 208 186 161 162 163 139 117 126 109 96 95 99 118 108 87 80 96 113 135 135 101 70 64 53 46
110 90 86 85 98 110 124 134 138 126 127 152 155 170 149 133 151 180 179 171 165 164 161 147 128 126 99 88 107 102 96 97 89 92 92 92 104 128 128 98 85 86 70
126 126 113 109 117 111 152 174 177 168 146 141 171 181 173 164 148 161 191 161 175 181 173 178 143 157 136 118 105 88 104 105 115 114 110 118 119 113 125 132 134 123 96
106 89 78 83 115 147 143 199 209 184 174 144 136 152 168 158 163 173 187 177 172 171 167 154 141 128 113 115 126 111 95 96 103 136 163 150 126 123 137 143 145 159 144
62 58 70 82 92 116 189 155 184 185 169 173 154 132 143 149 145 180 200 188 188 196 167 151 156 146 121 108 132 129 103 107 143 184 196 170 159 182 140 133 138 157 154
91 107 103 111 109 104 135 190 175 203 200 183 181 148 131 155 159 151 153 190 188 185 182 168 148 142 138 119 129 156 136 110 112 138 142 171 169 216 188 150 135 184 196
112 88 104 117 165 182 170 211 211 200 196 185 166 124 108 119 143 164 163 162 168 193 202 177 153 139 147 122 143 154 198 211 153 107 185 170 146 145 158 167 183 177 123
66 81 84 82 153 106 151 164 204 173 167 149 124 115 101 111 113 159 159 167 140 143 161 159 150 140 155 155 168 181 169 179 194 209 149 154 176 204 183 193 173 179 149
80 71 92 99 69 65 99 108 103 122 127 127 118 114 92 77 93 108 143 171 149 158 149 152 146 145 156 160 189 192 164 179 183 197 169 183 173 195 278 250 168 235 243

GFSSE_con_3kmhel_132.txt.gz
Helicity
-14 14 20 41 30 28 27 30 33 27 33 28 34 34 38 38 40 31 29 29 25 25 25 33 40 30 22 21 38 39 34 28 26 29 36 60 44 24 13 16 13 6 33
-22 5 32 28 32 18 18 24 24 23 23 9 36 30 29 34 27 24 22 7 11 31 56 59 58 43 32 37 45 62 46 25 44 44 35 37 24 23 22 19 15 15 33
2 16 37 47 39 13 15 22 29 31 21 14 26 31 32 24 23 19 27 35 20 44 52 49 46 40 39 47 50 54 49 44 50 42 29 -0 -0 25 27 26 25 27 32
30 35 49 47 36 25 20 21 27 32 28 19 16 25 34 22 20 21 28 43 41 50 57 42 33 27 27 39 45 53 53 36 2 19 5 -8 6 24 24 23 22 25 30
32 43 51 44 44 33 31 25 30 40 34 23 20 24 39 28 21 20 24 28 40 53 58 39 24 20 16 21 32 43 44 42 21 33 19 3 7 15 22 22 22 24 25
78 32 42 40 42 44 35 39 44 37 29 31 29 26 36 29 20 15 20 27 33 46 48 41 37 23 9 13 18 31 47 59 42 21 18 20 15 22 23 20 19 21 23
119 79 43 41 40 42 43 41 38 36 37 30 30 25 28 31 20 11 20 35 39 43 39 31 29 28 17 13 19 24 43 61 36 20 14 15 18 33 28 23 22 24 26
128 123 85 57 50 52 50 46 47 40 39 36 38 35 37 29 21 20 29 39 48 51 43 34 26 18 17 9 11 21 41 60 45 33 14 26 29 36 33 29 28 28 27
135 124 114 85 43 51 62 55 38 37 37 41 52 49 46 45 38 35 32 39 47 48 49 39 34 22 16 14 12 9 23 50 40 31 32 28 35 38 36 31 29 30 28
101 108 115 123 87 59 64 53 50 49 44 45 50 58 62 48 47 45 39 39 49 60 58 51 40 31 23 23 24 17 21 27 38 29 31 31 39 45 39 35 33 33 31
72 82 100 107 121 116 73 60 52 51 58 64 73 63 57 58 50 46 49 48 61 77 67 59 48 39 39 30 22 19 23 30 45 30 33 20 41 41 39 35 32 31 25
49 69 77 93 116 115 113 98 86 78 91 92 98 105 94 69 62 56 57 55 67 87 81 65 53 47 46 52 44 22 26 26 31 34 33 17 49 43 48 48 42 33 26
33 41 56 76 91 100 107 117 119 113 105 90 98 112 109 99 88 91 88 88 93 87 116 95 79 71 62 61 46 42 33 29 28 29 18 43 32 35 39 46 45 40 32
31 37 42 48 74 93 103 110 109 115 112 109 93 90 125 122 110 118 120 120 125 133 132 117 109 96 77 62 61 45 33 30 33 40 30 52 32 33 26 31 32 32 28
60 63 59 59 59 69 99 105 112 119 114 98 90 88 118 117 118 135 128 139 148 156 146 144 131 108 93 87 65 58 47 36 31 46 55 49 46 41 40 29 22 19 24
90 79 80 69 67 73 87 100 114 116 123 125 101 92 116 116 148 144 155 149 158 191 166 162 153 135 102 100 87 75 52 53 53 53 70 61 61 56 45 40 28 23 17
103 75 69 67 62 68 81 102 123 132 122 141 146 120 88 127 138 127 125 173 183 192 169 166 153 152 125 113 94 93 72 57 67 60 82 86 81 72 69 51 45 45 41
148 125 97 91 82 76 75 89 117 136 142 126 140 151 140 130 141 152 163 159 174 214 202 175 155 134 122 130 109 83 87 90 92 90 98 99 101 102 93 76 71 62 60
133 121 114 107 87 92 94 94 104 125 156 143 127 145 145 142 137 163 176 166 186 220 216 179 168 178 161 157 131 107 100 103 87 89 80 72 88 106 123 104 89 84 84
103 89 82 65 73 78 76 96 107 117 155 165 148 129 133 149 141 136 168 163 181 194 187 194 176 179 164 162 146 125 115 109 104 107 102 106 109 120 146 140 126 105 86
77 89 76 80 51 51 71 99 105 133 131 180 182 151 119 123 145 117 145 161 174 173 161 184 192 177 147 160 157 119 100 97 97 114 135 132 126 113 149 148 148 145 137
83 118 120 115 109 96 74 90 129 142 121 142 204 201 181 139 107 134 101 146 164 206 178 190 194 199 154 185 173 174 150 154 119 106 123 131 138 154 158 151 161 169 146
102 139 138 131 105 101 116 137 142 149 155 153 156 183 187 165 135 104 115 121 156 184 183 171 168 188 159 173 154 164 158 132 125 89 82 114 124 163 161 155 160 138 136
72 87 77 70 98 103 111 190 194 196 174 153 141 153 184 163 154 134 119 129 146 189 192 174 154 203 189 167 172 147 178 187 145 87 104 113 126 143 144 139 144 151 131
36 59 71 73 95 87 96 130 171 167 188 148 133 125 134 151 133 142 127 123 131 152 127 140 163 173 177 179 180 177 151 146 155 136 69 105 164 165 140 127 128 143 166
60 79 73 65 97 100 83 79 98 101 110 125 108 110 108 109 106 95 117 145 121 153 151 124 126 153 162 174 173 170 167 168 166 153 133 113 139 156 162 150 155 195 201